Torna al catalogo

FENGYUN 1C DEB

AttivoPO
NORAD 30888·DEBRIS·🇨🇳 China

Lanciato May 10, 1999 da Taiyuan Satellite Launch Center

Loading…

Prossimi Passaggi (prossime 24 ore)

TLE

AggiornatoSource: Space-Track

Epoca: Sep 14, 2026, 08:38 UTC

1 30888U 99025AYA 26257.35980668  .00006303  00000-0  47403-3 0  9992
2 30888  99.4713 300.0399 0069732 349.1341  10.8367 15.01109240 40437

Traccia FENGYUN 1C DEB in tempo reale con AllMySat

Download on the App Store